When you browse on this site, cookies collect data to enhance your experience and personalize the content and advertising you see.
Visit our Privacy Policy to learn more. By continuing to use the site, you agree to this use of cookies and data.
  • En España
  • Lista de países
  • Para 7 días
  • Temperatura del agua
  • El tiempo en el mapa
  • Informadores
  • user-avatar
    Iniciar sesión

    Tiempo cada hora Shagaev

    Hoy, 23 Agosto, Viernes

    Tiempo Temperatura Precipitaciones Viento Presión Humedad
    00:00 +16°C° 0 mm 5 mps 747 mmHg 86%
    01:00 +15°C° 0 mm 5 mps 747 mmHg 87%
    02:00 +15°C° 0 mm 5 mps 748 mmHg 85%
    03:00 +14°C° 0 mm 5 mps 748 mmHg 85%
    04:00 +14°C° 0 mm 4 mps 748 mmHg 86%
    05:00 +13°C° 0 mm 4 mps 748 mmHg 86%
    06:00 +14°C° 0 mm 5 mps 748 mmHg 83%
    07:00 +15°C° 0 mm 5 mps 748 mmHg 80%
    08:00 +17°C° 0 mm 5 mps 749 mmHg 77%
    09:00 +19°C° 0 mm 5 mps 748 mmHg 73%
    10:00 +20°C° 0 mm 5 mps 748 mmHg 69%
    11:00 +21°C° 0 mm 5 mps 748 mmHg 65%
    12:00 +21°C° 0 mm 5 mps 748 mmHg 63%
    13:00 +22°C° 0 mm 5 mps 748 mmHg 61%
    14:00 +22°C° 0 mm 5 mps 748 mmHg 59%
    15:00 +22°C° 0 mm 4 mps 748 mmHg 62%
    16:00 +21°C° 0 mm 4 mps 748 mmHg 65%
    17:00 +21°C° 0 mm 3 mps 748 mmHg 69%
    18:00 +19°C° 0 mm 3 mps 748 mmHg 73%
    19:00 +18°C° 0 mm 3 mps 748 mmHg 76%
    20:00 +16°C° 0 mm 2 mps 748 mmHg 80%
    21:00 +16°C° 0 mm 2 mps 748 mmHg 83%
    22:00 +15°C° 0 mm 2 mps 748 mmHg 85%
    23:00 +15°C° 0 mm 2 mps 748 mmHg 88%

    Mañana, 24 Agosto, Sábado

    Tiempo Temperatura Precipitaciones Viento Presión Humedad
    00:00 +14°C° 0 mm 2 mps 748 mmHg 89%
    01:00 +14°C° 0 mm 2 mps 748 mmHg 90%
    02:00 +14°C° 0 mm 2 mps 748 mmHg 91%
    03:00 +13°C° 0 mm 2 mps 748 mmHg 91%
    04:00 +13°C° 0 mm 2 mps 748 mmHg 91%
    05:00 +13°C° 0 mm 2 mps 748 mmHg 91%
    06:00 +15°C° 0 mm 2 mps 748 mmHg 84%
    07:00 +16°C° 0 mm 2 mps 748 mmHg 77%
    08:00 +18°C° 0 mm 2 mps 748 mmHg 70%
    09:00 +21°C° 0 mm 1 mps 748 mmHg 63%
    10:00 +22°C° 0 mm 1 mps 748 mmHg 57%
    11:00 +23°C° 0 mm 1 mps 748 mmHg 50%
    12:00 +24°C° 0 mm 1 mps 747 mmHg 49%
    13:00 +24°C° 0 mm 2 mps 747 mmHg 47%
    14:00 +24°C° 0 mm 2 mps 747 mmHg 45%
    15:00 +24°C° 0 mm 2 mps 746 mmHg 50%
    16:00 +23°C° 0 mm 2 mps 746 mmHg 55%
    17:00 +23°C° 0 mm 2 mps 746 mmHg 61%
    18:00 +20°C° 0 mm 2 mps 746 mmHg 64%
    19:00 +19°C° 0 mm 1 mps 746 mmHg 67%
    20:00 +18°C° 0 mm 1 mps 746 mmHg 70%
    21:00 +16°C° 0 mm 1 mps 746 mmHg 72%
    22:00 +16°C° 0 mm 1 mps 746 mmHg 75%
    23:00 +15°C° 0 mm 2 mps 746 mmHg 78%

    Pasado mañana, 25 Agosto, Domingo

    Tiempo Temperatura Precipitaciones Viento Presión Humedad
    00:00 +15°C° 0 mm 2 mps 746 mmHg 81%
    01:00 +15°C° 0 mm 2 mps 746 mmHg 85%
    02:00 +14°C° 0 mm 2 mps 746 mmHg 88%
    03:00 +14°C° 0 mm 2 mps 746 mmHg 90%
    04:00 +14°C° 0 mm 2 mps 746 mmHg 92%
    05:00 +14°C° 0 mm 2 mps 746 mmHg 93%
    06:00 +16°C° 0 mm 2 mps 746 mmHg 88%
    07:00 +17°C° 0 mm 2 mps 746 mmHg 83%
    08:00 +19°C° 0 mm 3 mps 746 mmHg 78%
    09:00 +20°C° 0 mm 3 mps 746 mmHg 73%
    10:00 +21°C° 0 mm 3 mps 746 mmHg 68%
    11:00 +22°C° 0 mm 4 mps 747 mmHg 64%
    12:00 +22°C° 0 mm 4 mps 747 mmHg 60%
    13:00 +22°C° 0 mm 4 mps 747 mmHg 57%
    14:00 +23°C° 0 mm 4 mps 747 mmHg 54%
    15:00 +22°C° 0 mm 4 mps 747 mmHg 57%
    16:00 +21°C° 0 mm 3 mps 747 mmHg 61%
    17:00 +21°C° 0 mm 3 mps 747 mmHg 64%
    18:00 +19°C° 0 mm 3 mps 747 mmHg 70%
    19:00 +17°C° 0 mm 3 mps 747 mmHg 75%
    20:00 +16°C° 0 mm 2 mps 747 mmHg 80%
    21:00 +15°C° 0 mm 2 mps 748 mmHg 81%
    22:00 +15°C° 0 mm 2 mps 748 mmHg 82%
    23:00 +14°C° 0 mm 2 mps 748 mmHg 84%

    26 Agosto, Lunes

    Tiempo Temperatura Precipitaciones Viento Presión Humedad
    00:00 +14°C° 0 mm 2 mps 748 mmHg 86%
    01:00 +13°C° 0 mm 2 mps 749 mmHg 89%
    02:00 +13°C° 0 mm 2 mps 749 mmHg 91%
    03:00 +13°C° 0 mm 2 mps 749 mmHg 91%
    04:00 +12°C° 0 mm 2 mps 749 mmHg 91%
    05:00 +12°C° 0 mm 2 mps 749 mmHg 91%
    06:00 +14°C° 0 mm 2 mps 749 mmHg 84%
    07:00 +15°C° 0 mm 2 mps 749 mmHg 77%
    08:00 +17°C° 0 mm 2 mps 749 mmHg 70%
    09:00 +18°C° 0 mm 2 mps 750 mmHg 64%
    10:00 +19°C° 0 mm 2 mps 750 mmHg 59%
    11:00 +20°C° 0 mm 2 mps 750 mmHg 54%
    12:00 +22°C° 0 mm 1 mps 749 mmHg 51%
    13:00 +23°C° 0 mm 1 mps 749 mmHg 49%
    14:00 +23°C° 0 mm 1 mps 749 mmHg 46%
    15:00 +21°C° 0 mm 0 mps 748 mmHg 49%
    16:00 +21°C° 0 mm 0 mps 748 mmHg 53%
    17:00 +21°C° 0 mm 0 mps 748 mmHg 56%
    18:00 +19°C° 0 mm 0 mps 748 mmHg 59%
    19:00 +17°C° 0 mm 0 mps 747 mmHg 62%
    20:00 +15°C° 0 mm 0 mps 747 mmHg 65%
    21:00 +15°C° 0 mm 0 mps 747 mmHg 67%
    22:00 +15°C° 0 mm 1 mps 747 mmHg 68%
    23:00 +15°C° 0 mm 1 mps 747 mmHg 69%

    27 Agosto, Martes

    Tiempo Temperatura Precipitaciones Viento Presión Humedad
    00:00 +14°C° 0 mm 1 mps 747 mmHg 70%
    01:00 +14°C° 0 mm 1 mps 747 mmHg 72%
    02:00 +14°C° 0 mm 1 mps 746 mmHg 73%
    03:00 +13°C° 0 mm 2 mps 746 mmHg 74%
    04:00 +13°C° 0 mm 2 mps 746 mmHg 76%
    05:00 +13°C° 0 mm 2 mps 746 mmHg 77%
    06:00 +14°C° 0 mm 2 mps 746 mmHg 74%
    07:00 +16°C° 0 mm 2 mps 746 mmHg 72%
    08:00 +17°C° 0 mm 3 mps 746 mmHg 70%
    09:00 +19°C° 0 mm 3 mps 746 mmHg 66%
    10:00 +20°C° 0 mm 4 mps 745 mmHg 63%
    11:00 +22°C° 0 mm 4 mps 745 mmHg 60%
    12:00 +22°C° 0 mm 4 mps 745 mmHg 60%
    13:00 +23°C° 0 mm 4 mps 745 mmHg 60%
    14:00 +23°C° 0 mm 5 mps 744 mmHg 60%
    15:00 +22°C° 0 mm 4 mps 744 mmHg 64%
    16:00 +22°C° 0 mm 3 mps 744 mmHg 68%
    17:00 +21°C° 0 mm 3 mps 744 mmHg 73%
    18:00 +20°C° 0 mm 3 mps 744 mmHg 77%
    19:00 +19°C° 0 mm 3 mps 744 mmHg 82%
    20:00 +17°C° 0 mm 3 mps 744 mmHg 86%
    21:00 +17°C° 0 mm 3 mps 744 mmHg 88%
    22:00 +16°C° 0 mm 3 mps 744 mmHg 90%
    23:00 +16°C° 0 mm 3 mps 744 mmHg 92%

    28 Agosto, Miércoles

    Tiempo Temperatura Precipitaciones Viento Presión Humedad
    00:00 +15°C° 0 mm 2 mps 744 mmHg 93%
    01:00 +15°C° 0 mm 2 mps 744 mmHg 93%
    02:00 +14°C° 0 mm 2 mps 744 mmHg 94%
    03:00 +14°C° 0 mm 2 mps 744 mmHg 94%
    04:00 +14°C° 0 mm 2 mps 744 mmHg 94%
    05:00 +13°C° 0 mm 2 mps 745 mmHg 93%
    06:00 +15°C° 0 mm 2 mps 745 mmHg 86%
    07:00 +16°C° 0 mm 2 mps 745 mmHg 78%
    08:00 +18°C° 0 mm 3 mps 745 mmHg 71%
    09:00 +19°C° 0 mm 3 mps 746 mmHg 66%
    10:00 +20°C° 0 mm 3 mps 746 mmHg 62%
    11:00 +21°C° 0 mm 3 mps 746 mmHg 57%
    12:00 +21°C° 0 mm 4 mps 746 mmHg 57%
    13:00 +21°C° 0 mm 4 mps 746 mmHg 57%
    14:00 +21°C° 0 mm 4 mps 745 mmHg 57%
    15:00 +20°C° 0 mm 4 mps 745 mmHg 59%
    16:00 +20°C° 0 mm 4 mps 745 mmHg 62%
    17:00 +19°C° 0 mm 3 mps 745 mmHg 64%
    18:00 +17°C° 0 mm 3 mps 746 mmHg 66%
    19:00 +14°C° 0 mm 3 mps 746 mmHg 68%
    20:00 +13°C° 0 mm 3 mps 746 mmHg 70%
    21:00 +13°C° 0 mm 2 mps 746 mmHg 70%
    22:00 +12°C° 0 mm 2 mps 747 mmHg 70%
    23:00 +12°C° 0 mm 2 mps 747 mmHg 70%
    Mostrar más